CAPE
419 19 49 0 0 2 4 0 0 0 0 0 0 0 0 0 0 0 0 0 0 0 0 0 0 0 0 0 0 0 0 0 1
281 98 2 0 0 3 7 0 0 0 0 0 0 0 0 0 0 0 0 0 0 0 0 0 0 0 0 0 0 0 0 0 0
116 2 0 0 1 62 52 13 0 0 0 0 0 0 0 0 0 0 0 0 0 0 0 0 0 0 0 0 0 0 0 0 0
6 2 0 4 16 60 70 55 0 0 0 0 0 0 0 0 0 0 0 0 0 0 0 0 0 0 0 0 0 0 0 0 0
12 3 6 9 4 0 27 52 66 0 0 0 0 0 0 0 0 0 0 0 0 0 0 0 0 0 0 0 0 0 0 0 0
2 2 5 6 40 0 0 25 63 8 0 0 0 0 0 0 0 0 0 0 0 0 0 0 0 0 0 0 0 0 0 0 0
1 0 7 7 2 20 7 0 0 0 0 0 0 0 0 0 0 0 0 0 0 0 0 0 0 0 0 0 0 0 0 0 0
2 1 6 9 10 27 7 0 0 0 0 0 0 0 0 0 0 0 0 0 0 23 27 16 0 0 0 0 0 0 0 0 0
2 2 2 5 2 0 0 0 0 0 0 0 0 0 0 0 0 0 0 0 0 0 14 43 64 58 29 23 20 12 0 0 1
1 0 1 0 0 0 0 0 0 0 0 0 0 0 0 0 0 0 0 0 0 0 0 4 29 47 36 29 13 16 22 15 0
0 0 0 0 0 0 0 0 0 0 0 0 0 0 0 0 0 0 0 0 0 0 0 7 15 23 19 35 21 9 3 0 0
0 0 0 0 0 0 0 0 0 0 0 0 0 0 0 0 0 0 0 0 0 0 5 0 0 0 0 27 39 9 0 0 0
0 0 0 0 0 0 0 0 0 0 0 0 0 0 0 0 6 8 0 3 2 3 0 0 0 0 0 44 47 1 0 0 0
0 0 0 0 5 0 0 0 0 0 0 0 0 0 6 8 5 0 0 1 0 0 0 0 0 0 0 96 39 0 0 0 0
0 0 17 30 21 6 0 5 8 0 1 0 2 5 3 7 0 6 0 0 0 0 0 0 0 0 0 66 18 0 0 0 0
49 77 99 84 49 41 35 18 27 14 1 0 13 22 8 7 3 0 0 0 0 0 0 0 0 0 1 8 1 0 0 0 0
142 135 152 176 125 85 73 44 39 32 11 12 45 20 10 1 0 0 0 0 0 0 0 0 0 0 0 0 0 0 0 0 0
295 214 285 264 201 141 130 107 82 69 70 33 50 10 6 0 0 0 0 0 0 0 0 0 0 0 0 0 0 0 0 0 7
273 270 304 290 239 221 172 131 151 129 123 59 65 8 0 0 0 0 0 0 0 0 0 0 0 0 0 0 0 0 0 8 15
233 222 147 129 82 72 84 75 98 82 71 43 0 4 8 0 0 0 0 0 0 0 0 0 0 0 0 0 0 0 0 10 25
CIN
-22 -54 -179 0 0 0 0 0 0 0 0 0 0 0 0 0 0 0 0 0 0 0 0 0 0 0 0 0 0 0 0 0 0
-38 -136 -23 0 0 0 0 0 0 0 0 0 0 0 0 0 0 0 0 0 0 0 0 0 0 0 0 0 0 0 0 0 0
-123 -31 0 0 -1 -3 -6 -15 0 0 0 0 0 0 0 0 0 0 0 0 0 0 0 0 0 0 0 0 0 0 0 0 0
-14 -9 0 -4 -9 -12 -8 -12 0 0 0 0 0 0 0 0 0 0 0 0 0 0 0 0 0 0 0 0 0 0 0 0 0
-7 -1 -1 -2 -8 0 -39 -20 -9 0 0 0 0 0 0 0 0 0 0 0 0 0 0 0 0 0 0 0 0 0 0 0 0
-4 -2 -3 -3 -25 0 0 -56 -28 -43 0 0 0 0 0 0 0 0 0 0 0 0 0 0 0 0 0 0 0 0 0 0 0
-2 -3 -7 -4 -4 -54 -48 0 0 0 0 0 0 0 0 0 0 0 0 0 0 0 0 0 0 0 0 0 0 0 0 0 0
-6 -2 -5 -7 -12 -73 -40 0 0 0 0 0 0 0 0 0 0 0 0 0 0 -4 -2 -10 0 0 0 0 0 0 0 0 0
-4 -1 -3 -5 -12 0 0 0 0 0 0 0 0 0 0 0 0 0 0 0 0 0 -12 -4 0 -3 -5 -7 -9 -11 0 0 -3
-6 -4 -3 -3 0 0 0 0 0 0 0 0 0 0 0 0 0 0 0 0 0 0 0 -17 -10 -5 -9 -7 -11 -10 -7 -16 0
0 0 0 0 0 0 0 0 0 0 0 0 0 0 0 0 0 0 0 0 0 0 0 -18 -15 -12 -9 -10 -11 -16 -5 0 0
0 0 0 0 0 0 0 0 0 0 0 0 0 0 0 0 0 0 -36 0 0 -9 -11 0 0 0 -1 -5 -6 -16 0 0 0
0 0 0 0 0 0 0 0 0 0 0 0 0 0 0 0 -18 -26 -5 -50 -15 -39 0 0 0 0 0 -15 -4 -4 0 0 0
0 0 0 0 -76 0 0 0 0 0 0 0 0 0 -16 -14 -18 0 0 -26 -16 0 0 0 0 0 0 -6 0 0 0 0 0
0 0 -94 -123 -141 -139 0 -135 -125 0 -57 0 -15 -21 -30 -22 -13 -28 0 0 0 0 0 0 0 0 0 -15 0 0 0 0 0
-90 -85 -64 -83 -117 -122 -113 -117 -108 -123 -41 0 -28 -31 -25 -27 -39 0 0 0 0 0 0 0 0 0 -8 -6 -3 0 0 0 0
-43 -48 -46 -37 -64 -72 -66 -86 -77 -75 -79 -46 -39 -7 -14 -36 0 0 0 0 0 0 0 0 0 0 0 0 0 0 0 0 0
-11 -35 -16 -18 -35 -80 -67 -58 -79 -62 -81 -45 -23 -11 -3 0 0 0 0 0 0 0 0 0 0 0 0 0 0 0 0 0 -16
-19 -16 -17 -25 -35 -32 -33 -56 -57 -61 -36 -83 -103 -57 -4 0 0 0 0 0 0 0 0 0 0 0 0 0 0 0 0 -12 -10
-27 -33 -35 -37 -48 -42 -56 -69 -70 -66 -69 -108 -13 -115 -88 0 0 0 0 0 0 0 0 0 0 0 0 0 0 0 0 -4 -1
Wind_Speed
8 10 12 12 13 14 14 14 14 13 11 9 8 8 9 15 16 17 18 19 20 22 23 23 24 24 25 26 27 27 28 28 28
5 9 11 11 12 13 13 13 13 12 10 8 8 8 11 15 16 16 17 18 20 21 22 23 23 24 24 25 26 26 27 27 27
5 7 8 9 11 12 12 12 11 11 9 8 8 9 11 13 16 16 16 18 19 20 21 22 22 23 24 24 25 25 26 26 26
7 7 6 8 8 8 8 9 9 9 9 8 9 10 11 12 14 15 16 16 18 19 19 20 21 22 22 23 23 24 25 25 25
7 4 5 6 6 6 6 7 8 8 8 9 10 11 11 11 12 14 14 15 16 17 18 19 20 21 21 21 22 23 23 24 24
5 4 4 5 5 5 5 5 6 7 8 9 11 13 13 13 10 12 13 14 15 16 17 18 18 19 19 20 21 21 21 22 23
6 5 4 4 3 3 3 4 5 6 8 10 12 14 14 13 9 11 12 12 13 14 15 16 17 17 17 18 19 20 20 21 22
8 6 5 3 2 1 2 4 6 8 9 11 12 13 15 11 10 10 11 11 12 13 13 14 15 16 16 16 16 18 18 19 20
10 9 7 6 6 5 5 6 7 9 11 14 11 13 12 12 8 10 10 11 12 12 14 15 15 16 15 14 14 15 17 18 18
11 10 9 7 8 7 6 6 7 10 14 10 11 11 11 10 8 9 10 11 12 13 13 15 16 17 15 14 14 15 16 18 21
13 11 10 9 8 6 7 7 10 11 12 13 14 11 13 11 8 9 10 11 13 13 14 16 18 18 17 15 14 14 15 17 20
13 12 11 9 8 8 10 9 11 11 13 14 11 11 11 10 9 9 10 11 11 12 14 17 18 19 19 13 12 13 14 16 18
14 13 12 10 9 9 10 10 13 13 12 13 12 11 12 14 13 9 12 13 14 13 15 18 19 20 19 14 10 12 14 16 19
15 13 12 11 10 11 12 13 13 14 16 15 16 14 12 11 11 13 14 14 15 16 17 19 20 20 18 10 10 12 15 17 20
17 16 14 12 12 12 11 12 13 14 16 17 19 17 11 12 13 12 13 14 17 18 17 18 19 19 16 11 11 13 15 17 20
18 17 16 15 13 11 11 12 14 16 17 18 20 19 17 17 12 13 13 16 18 17 15 16 17 19 16 14 14 15 17 18 21
19 19 18 17 15 12 12 14 15 18 18 18 20 23 23 20 16 14 15 14 14 16 14 14 15 16 15 16 18 19 20 21 22
22 22 21 19 15 16 15 15 16 16 17 17 21 22 22 21 18 15 13 12 12 14 15 14 14 14 14 15 15 17 19 21 23
24 21 20 20 19 18 17 16 16 16 17 21 23 21 23 22 20 19 16 13 12 12 13 14 13 13 14 15 16 16 19 23 22
23 23 21 24 23 20 18 19 17 19 21 24 24 27 24 19 19 18 15 16 16 13 13 14 13 13 14 15 17 18 21 23 21
Wind_Direction
92 91 88 79 73 73 68 66 63 57 49 33 5 349 346 39 38 37 38 39 41 43 41 38 34 34 34 34 35 34 33 35 37
94 97 92 83 81 79 71 64 59 51 41 20 349 340 6 44 35 37 39 38 40 40 39 36 35 34 33 34 34 34 35 34 34
117 109 93 84 86 86 76 64 55 47 34 2 346 332 359 34 39 42 35 37 38 38 37 37 35 34 34 33 36 36 35 35 34
134 120 102 97 88 77 70 63 51 37 22 348 332 333 336 39 38 40 38 37 36 36 36 35 35 34 33 35 37 35 36 36 35
147 133 123 110 95 82 61 54 49 27 4 338 320 326 331 7 36 36 37 34 32 32 33 33 34 34 36 37 36 35 35 33 32
183 160 141 124 105 93 60 43 36 20 352 331 307 309 317 329 23 27 32 30 29 29 29 31 32 33 33 34 33 32 32 31 30
209 177 179 149 131 107 62 18 9 0 339 322 310 306 312 331 25 16 24 24 25 27 26 26 26 29 31 32 30 29 28 27 26
219 213 219 219 184 253 325 327 323 323 322 316 315 318 309 343 10 16 18 18 20 20 20 20 20 22 25 25 26 25 26 26 25
215 219 221 232 251 268 293 307 311 310 314 305 316 316 329 333 357 9 13 11 12 10 7 7 9 8 11 19 22 20 19 18 18
217 219 228 234 253 266 283 300 306 305 302 312 313 320 333 338 352 3 7 5 4 1 1 2 359 359 4 9 11 12 13 13 10
222 223 225 241 249 259 281 291 300 301 304 301 306 318 319 326 344 353 355 360 359 358 358 354 352 353 356 1 6 10 14 12 11
224 225 227 229 245 261 277 289 296 299 299 301 312 320 322 330 342 343 347 351 353 355 352 349 347 346 349 357 4 9 8 7 8
223 227 230 238 251 263 276 286 290 294 298 298 309 316 316 322 325 338 336 341 342 347 345 343 341 339 342 351 4 3 2 1 360
226 227 233 242 252 265 276 284 289 290 293 298 298 307 315 321 330 333 339 342 343 344 343 341 340 340 343 3 6 1 359 356 354
231 236 238 244 256 267 272 281 287 293 292 295 296 307 310 320 321 329 335 337 337 337 340 342 343 344 352 5 2 2 358 355 352
230 235 240 249 252 259 269 279 285 286 289 297 297 300 303 308 315 319 327 327 330 337 340 342 347 349 356 358 356 353 354 352 349
234 240 244 249 254 258 269 276 283 285 292 294 299 292 294 302 305 311 318 327 336 338 341 344 346 348 352 351 345 343 343 343 343
240 241 248 254 252 258 266 275 279 287 300 298 294 300 296 297 300 303 313 325 336 341 346 348 344 344 348 349 349 346 344 342 341
246 246 251 256 259 260 269 275 280 289 292 296 293 299 306 297 295 297 303 311 318 330 338 342 346 348 349 349 349 351 345 341 342
250 254 258 265 267 272 274 279 289 294 293 289 292 294 289 295 298 295 303 304 309 316 322 329 336 344 346 346 347 345 342 341 344